| time (UTC) | temp F | wind direction | speed knots | gust knots | rain 1hr in | rain 24hr in | rain mn in | humidity % | barometer mb |
| 20260505091547 | 49 | 0 | 0.0 | 6.1 | 0.00 | 0.00 | 0.00 | 92 | 1010.4 |
| 20260505091037 | 49 | 0 | 0.0 | 6.1 | 0.00 | 0.00 | 0.00 | 92 | 1010.4 |
| 20260505090537 | 48 | 239 | 0.0 | 4.3 | 0.00 | 0.00 | 0.00 | 93 | 1010.4 |
| 20260505090047 | 48 | 0 | 0.0 | 4.3 | 0.00 | 0.00 | 0.00 | 93 | 1010.4 |
| 20260505085538 | 47 | 258 | 0.0 | 0.9 | 0.00 | 0.00 | 0.00 | 92 | 1010.4 |
| 20260505085037 | 47 | 0 | 0.0 | 0.9 | 0.00 | 0.00 | 0.00 | 92 | 1010.6 |
| 20260505084553 | 47 | 266 | 0.0 | 0.9 | 0.00 | 0.00 | 0.00 | 92 | 1010.5 |
| 20260505084038 | 47 | 0 | 0.0 | 0.0 | 0.00 | 0.00 | 0.00 | 92 | 1010.4 |
| 20260505083536 | 47 | 0 | 0.0 | 0.0 | 0.00 | 0.00 | 0.00 | 91 | 1010.4 |
| 20260505083051 | 47 | 0 | 0.0 | 0.0 | 0.00 | 0.00 | 0.00 | 91 | 1010.3 |
| 20260505082536 | 47 | 0 | 0.0 | 0.0 | 0.00 | 0.00 | 0.00 | 91 | 1010.4 |
| 20260505082037 | 47 | 0 | 0.0 | 0.0 | 0.00 | 0.00 | 0.00 | 92 | 1010.4 |
| 20260505081551 | 47 | 0 | 0.0 | 0.0 | 0.00 | 0.00 | 0.00 | 91 | 1010.4 |
| 20260505081037 | 47 | 0 | 0.0 | 0.0 | 0.00 | 0.00 | 0.00 | 90 | 1010.5 |
| 20260505080537 | 47 | 0 | 0.0 | 0.0 | 0.00 | 0.00 | 0.00 | 91 | 1010.5 |
| 20260505080054 | 47 | 0 | 0.0 | 0.0 | 0.00 | 0.00 | 0.00 | 90 | 1010.6 |
| 20260505075537 | 47 | 0 | 0.0 | 0.0 | 0.00 | 0.00 | 0.00 | 90 | 1010.4 |
| 20260505075037 | 47 | 0 | 0.0 | 0.0 | 0.00 | 0.00 | 0.00 | 90 | 1010.5 |
| 20260505074550 | 47 | 0 | 0.0 | 0.0 | 0.00 | 0.00 | 0.00 | 90 | 1010.5 |
| 20260505074037 | 47 | 0 | 0.0 | 0.0 | 0.00 | 0.00 | 0.00 | 89 | 1010.6 |
| 20260505073538 | 47 | 0 | 0.0 | 0.0 | 0.00 | 0.00 | 0.00 | 89 | 1010.7 |
| 20260505073049 | 47 | 0 | 0.0 | 0.0 | 0.00 | 0.00 | 0.00 | 87 | 1010.7 |
| 20260505072538 | 47 | 0 | 0.0 | 0.0 | 0.00 | 0.00 | 0.00 | 87 | 1010.7 |
| 20260505072038 | 47 | 0 | 0.0 | 0.9 | 0.00 | 0.00 | 0.00 | 87 | 1010.6 |
| 20260505071545 | 48 | 0 | 0.0 | 0.9 | 0.00 | 0.00 | 0.00 | 87 | 1010.7 |
| 20260505071038 | 48 | 0 | 0.0 | 0.0 | 0.00 | 0.00 | 0.00 | 86 | 1010.6 |
| 20260505070537 | 48 | 0 | 0.0 | 0.0 | 0.00 | 0.00 | 0.00 | 86 | 1010.7 |
| 20260505070051 | 48 | 0 | 0.0 | 0.9 | 0.00 | 0.00 | 0.00 | 85 | 1010.7 |
| 20260505065538 | 49 | 0 | 0.0 | 0.9 | 0.00 | 0.00 | 0.00 | 85 | 1010.7 |
| 20260505065036 | 49 | 0 | 0.0 | 0.9 | 0.00 | 0.00 | 0.00 | 85 | 1010.7 |
| 20260505064553 | 49 | 0 | 0.0 | 0.9 | 0.00 | 0.00 | 0.00 | 86 | 1010.7 |
| 20260505064037 | 49 | 0 | 0.0 | 0.0 | 0.00 | 0.00 | 0.00 | 84 | 1010.8 |
| 20260505063541 | 50 | 0 | 0.0 | 0.0 | 0.00 | 0.00 | 0.00 | 83 | 1010.7 |
| 20260505063047 | 50 | 0 | 0.0 | 0.9 | 0.00 | 0.00 | 0.00 | 83 | 1010.6 |
| 20260505062538 | 50 | 0 | 0.0 | 1.7 | 0.00 | 0.00 | 0.00 | 82 | 1010.7 |
| 20260505062037 | 51 | 0 | 0.0 | 1.7 | 0.00 | 0.00 | 0.00 | 82 | 1010.7 |
| 20260505061546 | 50 | 0 | 0.0 | 1.7 | 0.00 | 0.00 | 0.00 | 83 | 1010.7 |
| 20260505061036 | 50 | 226 | 0.0 | 2.6 | 0.00 | 0.00 | 0.00 | 82 | 1010.7 |
| 20260505060537 | 51 | 0 | 0.0 | 2.6 | 0.00 | 0.00 | 0.00 | 81 | 1010.7 |
| 20260505060042 | 51 | 89 | 0.0 | 2.6 | 0.00 | 0.00 | 0.00 | 81 | 1010.8 |
| 20260505055537 | 51 | 0 | 0.0 | 1.7 | 0.00 | 0.00 | 0.00 | 80 | 1010.7 |
| 20260505055038 | 51 | 255 | 0.0 | 1.7 | 0.00 | 0.00 | 0.00 | 81 | 1010.7 |
| 20260505054552 | 51 | 0 | 0.0 | 1.7 | 0.00 | 0.00 | 0.00 | 80 | 1010.8 |
| 20260505054040 | 51 | 0 | 0.0 | 1.7 | 0.00 | 0.00 | 0.00 | 80 | 1010.8 |
| 20260505053538 | 51 | 333 | 0.0 | 1.7 | 0.00 | 0.00 | 0.00 | 80 | 1010.7 |
| 20260505053111 | 52 | 0 | 0.0 | 1.7 | 0.00 | 0.00 | 0.00 | 79 | 1010.8 |
| 20260505052537 | 52 | 223 | 0.0 | 2.6 | 0.00 | 0.00 | 0.00 | 79 | 1010.8 |
| 20260505052041 | 52 | 0 | 0.0 | 2.6 | 0.00 | 0.00 | 0.00 | 79 | 1010.7 |
| 20260505051549 | 52 | 248 | 0.0 | 4.3 | 0.00 | 0.00 | 0.00 | 79 | 1010.8 |
| 20260505051037 | 52 | 250 | 0.0 | 4.3 | 0.00 | 0.00 | 0.00 | 79 | 1010.9 |
| 20260505050537 | 52 | 36 | 0.0 | 2.6 | 0.00 | 0.00 | 0.00 | 78 | 1011.0 |
| 20260505050103 | 52 | 0 | 0.0 | 4.3 | 0.00 | 0.00 | 0.00 | 78 | 1010.9 |
| 20260505041546 | 52 | 294 | 0.0 | 3.5 | 0.00 | 0.00 | 0.00 | 76 | 1011.0 |
| 20260505041039 | 52 | 231 | 0.0 | 3.5 | 0.00 | 0.00 | 0.00 | 76 | 1010.9 |
| 20260505040537 | 52 | 0 | 0.0 | 1.7 | 0.00 | 0.00 | 0.00 | 76 | 1010.9 |
| 20260505040045 | 52 | 329 | 0.0 | 1.7 | 0.00 | 0.00 | 0.00 | 75 | 1010.8 |
| 20260505035537 | 53 | 0 | 0.0 | 3.5 | 0.00 | 0.00 | 0.00 | 75 | 1010.9 |
| 20260505035036 | 53 | 188 | 0.0 | 3.5 | 0.00 | 0.00 | 0.00 | 75 | 1010.9 |
| 20260505034601 | 53 | 0 | 0.0 | 4.3 | 0.00 | 0.00 | 0.00 | 74 | 1010.9 |
| 20260505034037 | 53 | 0 | 0.9 | 4.3 | 0.00 | 0.00 | 0.00 | 74 | 1011.0 |
| 20260505033538 | 53 | 269 | 0.9 | 3.5 | 0.00 | 0.00 | 0.00 | 74 | 1011.0 |
| 20260505033052 | 53 | 261 | 0.9 | 3.5 | 0.00 | 0.00 | 0.00 | 74 | 1010.9 |
| 20260505032537 | 53 | 129 | 0.9 | 3.5 | 0.00 | 0.00 | 0.00 | 74 | 1010.9 |
| 20260505032038 | 53 | 281 | 0.9 | 4.3 | 0.00 | 0.00 | 0.00 | 74 | 1010.9 |
| 20260505031545 | 53 | 304 | 0.0 | 4.3 | 0.00 | 0.00 | 0.00 | 74 | 1011.1 |
| 20260505031037 | 53 | 0 | 0.9 | 4.3 | 0.00 | 0.00 | 0.00 | 73 | 1011.1 |
| 20260505030537 | 53 | 0 | 0.0 | 4.3 | 0.00 | 0.00 | 0.00 | 72 | 1011.2 |
| 20260505030051 | 53 | 257 | 0.0 | 6.1 | 0.00 | 0.00 | 0.00 | 73 | 1011.1 |
| 20260505025537 | 53 | 297 | 0.0 | 6.1 | 0.00 | 0.00 | 0.00 | 72 | 1011.1 |
| 20260505025037 | 53 | 243 | 0.9 | 6.1 | 0.00 | 0.00 | 0.00 | 72 | 1011.0 |
| 20260505024544 | 53 | 110 | 0.0 | 4.3 | 0.00 | 0.00 | 0.00 | 72 | 1011.1 |
| 20260505024037 | 54 | 4 | 0.9 | 4.3 | 0.00 | 0.00 | 0.00 | 71 | 1011.0 |
| 20260505023538 | 54 | 216 | 0.9 | 5.2 | 0.00 | 0.00 | 0.00 | 71 | 1011.0 |
| 20260505023050 | 54 | 277 | 0.0 | 6.1 | 0.00 | 0.00 | 0.00 | 71 | 1011.0 |
| 20260505022541 | 54 | 250 | 0.9 | 6.1 | 0.00 | 0.00 | 0.00 | 71 | 1011.0 |
| 20260505022038 | 54 | 0 | 0.0 | 3.5 | 0.00 | 0.00 | 0.00 | 71 | 1011.1 |
| 20260505021547 | 54 | 0 | 0.9 | 3.5 | 0.00 | 0.00 | 0.00 | 71 | 1011.2 |
| 20260505021039 | 54 | 184 | 0.9 | 4.3 | 0.00 | 0.00 | 0.00 | 70 | 1011.0 |
| 20260505020537 | 54 | 0 | 0.9 | 6.1 | 0.00 | 0.00 | 0.00 | 70 | 1011.0 |
| 20260505020048 | 54 | 294 | 1.7 | 6.1 | 0.00 | 0.00 | 0.00 | 70 | 1010.9 |
| 20260505015538 | 54 | 0 | 0.9 | 5.2 | 0.00 | 0.00 | 0.00 | 70 | 1011.0 |
| 20260505015038 | 54 | 216 | 0.9 | 3.5 | 0.00 | 0.00 | 0.00 | 70 | 1011.0 |
| 20260505014544 | 54 | 0 | 0.0 | 2.6 | 0.00 | 0.00 | 0.00 | 70 | 1011.0 |
| 20260505014037 | 55 | 283 | 0.0 | 2.6 | 0.00 | 0.00 | 0.00 | 69 | 1010.9 |
| 20260505013537 | 55 | 0 | 0.0 | 3.5 | 0.00 | 0.00 | 0.00 | 69 | 1010.9 |
| 20260505013051 | 55 | 233 | 0.9 | 3.5 | 0.00 | 0.00 | 0.00 | 69 | 1010.8 |
| 20260505012537 | 55 | 75 | 0.9 | 7.0 | 0.00 | 0.00 | 0.00 | 68 | 1010.6 |
| 20260505012037 | 55 | 233 | 0.9 | 7.0 | 0.00 | 0.00 | 0.00 | 68 | 1010.6 |
| 20260505011604 | 55 | 4 | 0.9 | 6.1 | 0.00 | 0.00 | 0.00 | 67 | 1010.5 |
| 20260505011038 | 55 | 283 | 0.0 | 7.0 | 0.00 | 0.00 | 0.00 | 67 | 1010.4 |
| 20260505010538 | 55 | 240 | 0.9 | 7.0 | 0.00 | 0.00 | 0.00 | 66 | 1010.4 |
| 20260505010046 | 56 | 0 | 0.0 | 7.0 | 0.00 | 0.00 | 0.00 | 66 | 1010.4 |
| 20260505005537 | 56 | 304 | 0.9 | 4.3 | 0.00 | 0.00 | 0.00 | 65 | 1010.2 |
| 20260505005038 | 56 | 340 | 0.9 | 4.3 | 0.00 | 0.00 | 0.00 | 64 | 1010.0 |
| 20260505004547 | 56 | 271 | 0.9 | 3.5 | 0.00 | 0.00 | 0.00 | 63 | 1010.0 |
| 20260505004037 | 56 | 0 | 0.9 | 5.2 | 0.00 | 0.00 | 0.00 | 62 | 1009.9 |
| 20260505003536 | 56 | 257 | 0.9 | 5.2 | 0.00 | 0.00 | 0.00 | 61 | 1009.7 |
| 20260505003052 | 56 | 274 | 1.7 | 4.3 | 0.00 | 0.00 | 0.00 | 60 | 1009.5 |
| 20260505002538 | 57 | 221 | 0.0 | 7.0 | 0.00 | 0.00 | 0.00 | 59 | 1009.5 |
| 20260505002037 | 57 | 245 | 0.9 | 7.0 | 0.00 | 0.00 | 0.00 | 58 | 1009.4 |
| 20260505001603 | 57 | 118 | 0.9 | 7.0 | 0.00 | 0.00 | 0.00 | 57 | 1009.4 |
| 20260505001037 | 57 | 270 | 0.0 | 7.0 | 0.00 | 0.00 | 0.00 | 56 | 1009.4 |
| 20260505000537 | 57 | 253 | 0.9 | 4.3 | 0.00 | 0.00 | 0.00 | 55 | 1009.1 |
| 20260505000104 | 58 | 0 | 0.9 | 4.3 | 0.00 | 0.00 | 0.00 | 54 | 1009.1 |
| 20260504235538 | 58 | 236 | 1.7 | 7.0 | 0.00 | 0.00 | 0.00 | 54 | 1008.9 |
| 20260504235037 | 58 | 336 | 0.9 | 7.0 | 0.00 | 0.00 | 0.00 | 53 | 1008.8 |
| 20260504234545 | 59 | 45 | 1.7 | 6.1 | 0.00 | 0.00 | 0.00 | 52 | 1008.7 |
| 20260504234036 | 59 | 221 | 1.7 | 5.2 | 0.00 | 0.00 | 0.00 | 51 | 1008.8 |
| 20260504233537 | 59 | 220 | 0.9 | 7.8 | 0.00 | 0.00 | 0.00 | 51 | 1008.7 |
| 20260504233057 | 59 | 130 | 1.7 | 11.3 | 0.00 | 0.00 | 0.00 | 50 | 1008.6 |
| 20260504232537 | 60 | 252 | 1.7 | 11.3 | 0.00 | 0.00 | 0.00 | 50 | 1008.6 |
| 20260504232036 | 60 | 302 | 2.6 | 8.7 | 0.00 | 0.00 | 0.00 | 49 | 1008.4 |
| 20260504231546 | 60 | 266 | 0.9 | 7.8 | 0.00 | 0.00 | 0.00 | 49 | 1008.2 |
| 20260504231037 | 60 | 245 | 0.9 | 7.8 | 0.00 | 0.00 | 0.00 | 49 | 1008.3 |
| 20260504230539 | 60 | 242 | 0.9 | 7.0 | 0.00 | 0.00 | 0.00 | 48 | 1008.2 |
| 20260504230049 | 61 | 280 | 0.9 | 7.0 | 0.00 | 0.00 | 0.00 | 48 | 1008.2 |
| 20260504225538 | 61 | 295 | 0.9 | 7.0 | 0.00 | 0.00 | 0.00 | 48 | 1008.1 |
| 20260504225037 | 61 | 278 | 0.9 | 7.0 | 0.00 | 0.00 | 0.00 | 47 | 1008.0 |
| 20260504224547 | 62 | 296 | 0.9 | 7.0 | 0.00 | 0.00 | 0.00 | 47 | 1008.0 |
| 20260504224035 | 62 | 287 | 0.9 | 4.3 | 0.00 | 0.00 | 0.00 | 46 | 1007.9 |
| 20260504223537 | 62 | 221 | 0.9 | 7.0 | 0.00 | 0.00 | 0.00 | 46 | 1007.8 |
| 20260504223048 | 62 | 238 | 1.7 | 7.0 | 0.00 | 0.00 | 0.00 | 46 | 1007.8 |
| 20260504222542 | 63 | 271 | 0.0 | 9.6 | 0.00 | 0.00 | 0.00 | 46 | 1007.7 |
| 20260504222038 | 63 | 120 | 1.7 | 9.6 | 0.00 | 0.00 | 0.00 | 46 | 1007.8 |
| 20260504221544 | 63 | 261 | 1.7 | 7.0 | 0.00 | 0.00 | 0.00 | 46 | 1007.7 |
| 20260504221038 | 63 | 223 | 0.9 | 7.0 | 0.00 | 0.00 | 0.00 | 45 | 1007.7 |
| 20260504220537 | 64 | 236 | 2.6 | 7.0 | 0.00 | 0.00 | 0.00 | 45 | 1007.6 |
| 20260504220053 | 64 | 11 | 1.7 | 7.0 | 0.00 | 0.00 | 0.00 | 44 | 1007.6 |
| 20260504215538 | 64 | 72 | 0.9 | 7.8 | 0.00 | 0.00 | 0.00 | 44 | 1007.7 |
| 20260504215038 | 65 | 273 | 0.9 | 7.8 | 0.00 | 0.00 | 0.00 | 44 | 1007.6 |
| 20260504214546 | 65 | 235 | 0.9 | 5.2 | 0.00 | 0.00 | 0.00 | 43 | 1007.6 |
| 20260504214037 | 65 | 252 | 0.9 | 5.2 | 0.00 | 0.00 | 0.00 | 43 | 1007.6 |
| 20260504213536 | 65 | 250 | 0.9 | 8.7 | 0.00 | 0.00 | 0.00 | 42 | 1007.4 |
| 20260504213053 | 65 | 255 | 1.7 | 8.7 | 0.00 | 0.00 | 0.00 | 42 | 1007.5 |
| 20260504212537 | 65 | 215 | 0.9 | 5.2 | 0.00 | 0.00 | 0.00 | 41 | 1007.5 |
| 20260504212038 | 65 | 282 | 2.6 | 5.2 | 0.00 | 0.00 | 0.00 | 41 | 1007.4 |
| 20260504211543 | 66 | 271 | 0.9 | 5.2 | 0.00 | 0.00 | 0.00 | 40 | 1007.5 |
| 20260504211035 | 66 | 308 | 1.7 | 8.7 | 0.00 | 0.00 | 0.00 | 39 | 1007.4 |
| 20260504210537 | 66 | 258 | 1.7 | 8.7 | 0.00 | 0.00 | 0.00 | 38 | 1007.4 |
| 20260504210047 | 66 | 205 | 2.6 | 8.7 | 0.00 | 0.00 | 0.00 | 37 | 1007.3 |
| 20260504205539 | 67 | 266 | 0.9 | 8.7 | 0.00 | 0.00 | 0.00 | 38 | 1007.4 |
| 20260504205036 | 67 | 229 | 3.5 | 8.7 | 0.00 | 0.00 | 0.00 | 36 | 1007.4 |
| 20260504204547 | 67 | 255 | 1.7 | 12.2 | 0.00 | 0.00 | 0.00 | 36 | 1007.4 |
| 20260504204035 | 67 | 247 | 2.6 | 12.2 | 0.00 | 0.00 | 0.00 | 36 | 1007.3 |
| 20260504203537 | 67 | 213 | 0.9 | 5.2 | 0.00 | 0.00 | 0.00 | 36 | 1007.3 |
| 20260504203055 | 67 | 263 | 0.9 | 7.8 | 0.00 | 0.00 | 0.00 | 36 | 1007.2 |
| 20260504202535 | 66 | 282 | 1.7 | 9.6 | 0.00 | 0.00 | 0.00 | 35 | 1007.2 |
| 20260504202041 | 66 | 240 | 2.6 | 9.6 | 0.00 | 0.00 | 0.00 | 35 | 1007.2 |
| 20260504201550 | 67 | 276 | 2.6 | 9.6 | 0.00 | 0.00 | 0.00 | 35 | 1007.2 |
| 20260504201037 | 67 | 286 | 3.5 | 9.6 | 0.00 | 0.00 | 0.00 | 34 | 1007.3 |
| 20260504200536 | 67 | 245 | 0.9 | 7.0 | 0.00 | 0.00 | 0.00 | 36 | 1007.2 |
| 20260504200045 | 67 | 257 | 1.7 | 8.7 | 0.00 | 0.00 | 0.00 | 35 | 1007.3 |
| 20260504195535 | 67 | 281 | 1.7 | 8.7 | 0.00 | 0.00 | 0.00 | 35 | 1007.3 |
| 20260504195037 | 67 | 105 | 2.6 | 13.9 | 0.00 | 0.00 | 0.00 | 34 | 1007.3 |
| 20260504194553 | 68 | 47 | 2.6 | 13.9 | 0.00 | 0.00 | 0.00 | 34 | 1007.2 |
| 20260504194035 | 68 | 190 | 4.3 | 13.9 | 0.00 | 0.00 | 0.00 | 33 | 1007.2 |
| 20260504193537 | 68 | 214 | 0.9 | 8.7 | 0.00 | 0.00 | 0.00 | 34 | 1007.3 |
| 20260504193046 | 68 | 269 | 2.6 | 8.7 | 0.00 | 0.00 | 0.00 | 33 | 1007.1 |
| 20260504192537 | 68 | 212 | 1.7 | 6.1 | 0.00 | 0.00 | 0.00 | 35 | 1007.2 |
| 20260504192035 | 68 | 262 | 1.7 | 8.7 | 0.00 | 0.00 | 0.00 | 34 | 1007.0 |
| 20260504191559 | 68 | 158 | 0.9 | 8.7 | 0.00 | 0.00 | 0.00 | 35 | 1007.1 |
| 20260504191035 | 68 | 0 | 2.6 | 8.7 | 0.00 | 0.00 | 0.00 | 35 | 1007.1 |
| 20260504190537 | 69 | 292 | 2.6 | 8.7 | 0.00 | 0.00 | 0.00 | 33 | 1007.3 |
| 20260504190049 | 69 | 342 | 1.7 | 8.7 | 0.00 | 0.00 | 0.00 | 33 | 1007.2 |
| 20260504185537 | 70 | 218 | 3.5 | 11.3 | 0.00 | 0.00 | 0.00 | 31 | 1007.3 |
| 20260504185039 | 70 | 300 | 3.5 | 11.3 | 0.00 | 0.00 | 0.00 | 30 | 1007.3 |
| 20260504184542 | 70 | 193 | 1.7 | 9.6 | 0.00 | 0.00 | 0.00 | 28 | 1007.3 |
| 20260504184038 | 70 | 216 | 3.5 | 10.4 | 0.00 | 0.00 | 0.00 | 27 | 1007.4 |
| 20260504183537 | 71 | 276 | 2.6 | 11.3 | 0.00 | 0.00 | 0.00 | 27 | 1007.5 |
| 20260504183046 | 71 | 256 | 0.9 | 11.3 | 0.00 | 0.00 | 0.00 | 27 | 1007.3 |
| 20260504182536 | 71 | 19 | 1.7 | 11.3 | 0.00 | 0.00 | 0.00 | 27 | 1007.5 |
| 20260504182035 | 71 | 262 | 2.6 | 10.4 | 0.00 | 0.00 | 0.00 | 28 | 1007.6 |
| 20260504181551 | 71 | 113 | 1.7 | 11.3 | 0.00 | 0.00 | 0.00 | 28 | 1007.4 |
| 20260504181035 | 70 | 101 | 1.7 | 11.3 | 0.00 | 0.00 | 0.00 | 27 | 1007.5 |
| 20260504180538 | 70 | 219 | 2.6 | 8.7 | 0.00 | 0.00 | 0.00 | 28 | 1007.4 |
| 20260504180047 | 70 | 225 | 2.6 | 7.0 | 0.00 | 0.00 | 0.00 | 27 | 1007.4 |
| 20260504175538 | 71 | 114 | 0.9 | 7.8 | 0.00 | 0.00 | 0.00 | 28 | 1007.5 |
| 20260504175038 | 70 | 321 | 1.7 | 7.8 | 0.00 | 0.00 | 0.00 | 28 | 1007.4 |
| 20260504174550 | 70 | 307 | 1.7 | 12.2 | 0.00 | 0.00 | 0.00 | 28 | 1007.4 |
| 20260504174039 | 70 | 202 | 0.9 | 12.2 | 0.00 | 0.00 | 0.00 | 28 | 1007.3 |
| 20260504173537 | 70 | 246 | 1.7 | 9.6 | 0.00 | 0.00 | 0.00 | 26 | 1007.2 |
| 20260504173046 | 70 | 221 | 1.7 | 7.8 | 0.00 | 0.00 | 0.00 | 27 | 1007.4 |
| 20260504172541 | 70 | 203 | 2.6 | 7.8 | 0.00 | 0.00 | 0.00 | 27 | 1007.3 |
| 20260504172037 | 71 | 260 | 1.7 | 7.8 | 0.00 | 0.00 | 0.00 | 28 | 1007.3 |
| 20260504171551 | 71 | 311 | 2.6 | 7.8 | 0.00 | 0.00 | 0.00 | 26 | 1007.3 |
| 20260504171036 | 71 | 276 | 0.9 | 7.0 | 0.00 | 0.00 | 0.00 | 28 | 1007.4 |
| 20260504170537 | 71 | 212 | 0.9 | 7.0 | 0.00 | 0.00 | 0.00 | 28 | 1007.3 |
| 20260504151037 | 69 | 341 | 1.7 | 4.3 | 0.00 | 0.00 | 0.00 | 32 | 1009.0 |
| 20260504150535 | 69 | 279 | 0.9 | 5.2 | 0.00 | 0.00 | 0.00 | 30 | 1008.9 |
| 20260504141037 | 67 | 0 | 0.0 | 0.0 | 0.00 | 0.00 | 0.00 | 35 | 1009.8 |
| 20260504140536 | 66 | 0 | 0.0 | 0.0 | 0.00 | 0.00 | 0.00 | 35 | 1009.8 |
| 20260504130538 | 61 | 0 | 0.0 | 0.0 | 0.00 | 0.00 | 0.00 | 39 | 1010.3 |
| 20260504110537 | 49 | 0 | 0.0 | 0.0 | 0.00 | 0.00 | 0.00 | 60 | 1010.7 |
| 20260504100537 | 44 | 0 | 0.0 | 0.0 | 0.00 | 0.00 | 0.00 | 67 | 1010.4 |